W5CGC Weather Reports


time (UTC)temp
C
wind
direction
speed
KPH
gust
KPH
rain 1hr
cm
rain 24hr
cm
rain mn
cm
humidity
%
barometer
mb
20260906064539 26 0 0.0 0.0 0.00 0.00 0.00 59 1012.5
20260906063041 26 0 0.0 0.0 0.00 0.00 0.00 58 1012.4
20260906061540 26 0 0.0 0.0 0.00 0.00 0.00 58 1012.4
20260906060045 27 0 0.0 0.0 0.00 0.00 0.00 57 1012.6
20260906054545 27 0 0.0 0.0 0.00 0.00 0.00 55 1012.5
20260906053050 27 0 0.0 0.0 0.00 0.00 0.00 55 1012.4
20260906051540 27 0 0.0 0.0 0.00 0.00 0.00 53 1012.6
20260906050045 28 0 0.0 0.0 0.00 0.00 0.00 52 1012.6
20260906044543 28 0 0.0 0.0 0.00 0.00 0.00 51 1012.5
20260906043041 28 0 0.0 0.0 0.00 0.00 0.00 50 1012.3
20260906041538 29 0 0.0 1.6 0.00 0.00 0.00 49 1012.3
20260906040043 30 0 0.0 4.8 0.00 0.00 0.00 48 1012.2
20260906034546 30 0 0.0 1.6 0.00 0.00 0.00 47 1012.4
20260906033038 30 0 0.0 3.2 0.00 0.00 0.00 45 1012.2
20260906031538 31 86 0.0 4.8 0.00 0.00 0.00 44 1012.5
20260906030039 31 0 1.6 9.7 0.00 0.00 0.00 43 1012.5
20260906024556 31 185 0.0 8.0 0.00 0.00 0.00 43 1012.4
20260906023042 31 125 0.0 6.4 0.00 0.00 0.00 42 1012.0
20260906021540 31 103 0.0 4.8 0.00 0.00 0.00 42 1011.8
20260906020049 32 0 0.0 9.7 0.00 0.00 0.00 41 1011.5
20260906014551 32 17 3.2 16.1 0.00 0.00 0.00 39 1011.4
20260906013044 33 40 1.6 9.7 0.00 0.00 0.00 37 1011.1
20260906011542 32 0 0.0 0.0 0.00 0.00 0.00 36 1010.4
20260906010042 33 0 0.0 1.6 0.00 0.00 0.00 34 1010.3
20260906004544 34 0 0.0 1.6 0.00 0.00 0.00 32 1010.3
20260906003050 34 0 0.0 3.2 0.00 0.00 0.00 31 1010.3
20260906001541 35 0 0.0 1.6 0.00 0.00 0.00 29 1010.4
20260906000042 35 0 0.0 3.2 0.00 0.00 0.00 29 1010.2
20260905234545 35 217 0.0 3.2 0.00 0.00 0.00 27 1010.2
20260905233040 35 221 0.0 3.2 0.00 0.00 0.00 27 1010.2
20260905231540 35 0 0.0 3.2 0.00 0.00 0.00 27 1010.2
20260905230039 35 0 0.0 4.8 0.00 0.00 0.00 27 1010.1
20260905224538 35 196 1.6 4.8 0.00 0.00 0.00 27 1010.2
20260905223039 35 207 1.6 4.8 0.00 0.00 0.00 27 1010.1
20260905221545 36 210 1.6 4.8 0.00 0.00 0.00 27 1010.3
20260905220044 36 0 1.6 6.4 0.00 0.00 0.00 28 1010.3
20260905214545 36 38 0.0 4.8 0.00 0.00 0.00 27 1010.6
20260905213046 36 229 1.6 4.8 0.00 0.00 0.00 27 1010.7
20260905211543 36 219 1.6 6.4 0.00 0.00 0.00 27 1010.9
20260905210045 37 193 0.0 6.4 0.00 0.00 0.00 27 1011.1
20260905204548 37 176 1.6 6.4 0.00 0.00 0.00 27 1011.2
20260905203044 37 158 1.6 8.0 0.00 0.00 0.00 27 1011.4
20260905201545 36 254 1.6 6.4 0.00 0.00 0.00 27 1011.6
20260905200052 35 225 1.6 4.8 0.00 0.00 0.00 28 1012.0
20260905194547 36 229 1.6 6.4 0.00 0.00 0.00 30 1012.2
20260905193052 36 174 1.6 8.0 0.00 0.00 0.00 30 1012.4
20260905191544 35 272 1.6 6.4 0.00 0.00 0.00 30 1012.5
20260905190043 35 224 1.6 11.3 0.00 0.00 0.00 31 1012.7
20260905184546 35 221 3.2 6.4 0.00 0.00 0.00 31 1013.1
20260905183042 35 243 1.6 9.7 0.00 0.00 0.00 34 1013.3
20260905181541 34 203 3.2 8.0 0.00 0.00 0.00 33 1013.6
20260905180044 35 207 3.2 8.0 0.00 0.00 0.00 34 1013.9
20260905174542 35 225 1.6 8.0 0.00 0.00 0.00 34 1014.0
20260905173039 33 213 0.0 6.4 0.00 0.00 0.00 36 1014.1
20260905171540 33 246 1.6 6.4 0.00 0.00 0.00 37 1014.3
20260905170047 32 199 1.6 6.4 0.00 0.00 0.00 39 1014.4
20260905164541 32 0 1.6 6.4 0.00 0.00 0.00 39 1014.5
20260905163041 32 0 0.0 3.2 0.00 0.00 0.00 39 1014.6
20260905161541 32 174 0.0 3.2 0.00 0.00 0.00 39 1014.5
20260905160046 32 0 0.0 4.8 0.00 0.00 0.00 40 1014.5
20260905154542 31 0 0.0 0.0 0.00 0.00 0.00 44 1014.5
20260905153039 31 0 0.0 1.6 0.00 0.00 0.00 46 1014.5
20260905151549 30 0 0.0 1.6 0.00 0.00 0.00 47 1014.5
20260905150044 30 0 0.0 3.2 0.00 0.00 0.00 49 1014.4
20260905144547 29 96 0.0 4.8 0.00 0.00 0.00 53 1014.4
20260905143049 28 0 0.0 1.6 0.00 0.00 0.00 54 1014.4
20260905141542 27 0 0.0 1.6 0.00 0.00 0.00 57 1014.3
20260905140041 27 0 0.0 0.0 0.00 0.00 0.00 60 1014.4
20260905134539 26 0 0.0 0.0 0.00 0.00 0.00 61 1014.2
20260905133036 26 0 0.0 1.6 0.00 0.00 0.00 64 1014.2
20260905131548 25 0 0.0 1.6 0.00 0.00 0.00 67 1014.0
20260905130040 25 0 0.0 0.0 0.00 0.00 0.00 70 1013.9
20260905124543 23 0 0.0 0.0 0.00 0.00 0.00 69 1013.9
20260905123041 23 0 0.0 0.0 0.00 0.00 0.00 68 1013.7
20260905121539 23 0 0.0 0.0 0.00 0.00 0.00 67 1013.6
20260905120042 23 0 0.0 0.0 0.00 0.00 0.00 67 1013.5
20260905114545 23 0 0.0 0.0 0.00 0.00 0.00 67 1013.5
20260905113041 23 0 0.0 0.0 0.00 0.00 0.00 66 1013.4
20260905111548 24 0 0.0 0.0 0.00 0.00 0.00 66 1013.3
20260905110039 24 0 0.0 0.0 0.00 0.00 0.00 66 1013.4
20260905104538 24 0 0.0 0.0 0.00 0.00 0.00 65 1013.4
20260905103039 24 0 0.0 0.0 0.00 0.00 0.00 64 1013.5
20260905101547 25 0 0.0 0.0 0.00 0.00 0.00 64 1013.5
20260905100055 25 0 0.0 0.0 0.00 0.00 0.00 63 1013.5
20260905094547 25 0 0.0 0.0 0.00 0.00 0.00 62 1013.4
20260905093044 25 0 0.0 0.0 0.00 0.00 0.00 61 1013.1
20260905091540 26 0 0.0 0.0 0.00 0.00 0.00 60 1012.9
20260905090038 26 0 0.0 0.0 0.00 0.00 0.00 57 1013.0
20260905084542 26 0 0.0 0.0 0.00 0.00 0.00 56 1013.1
20260905083042 27 0 0.0 1.6 0.00 0.00 0.00 56 1012.9
20260905081542 27 0 0.0 0.0 0.00 0.00 0.00 54 1012.9
20260905080053 27 0 0.0 1.6 0.00 0.00 0.00 54 1012.8
20260905074538 27 75 0.0 4.8 0.00 0.00 0.00 54 1012.8
20260905073043 27 0 0.0 0.0 0.00 0.00 0.00 53 1013.0
20260905071542 28 0 0.0 1.6 0.00 0.00 0.00 51 1013.1
20260905070039 28 0 0.0 1.6 0.00 0.00 0.00 50 1013.1